• Em Portugal
  • Lista de países
  • Para 7 dias
  • Temperatura da água
  • Mapas de satélite
  • Mapa do tempo
  • Widgets de tempo
  • user-avatar
    Iniciar Sessão

    Previsão horária em Keetmanshoop

    Hoje, 20 Outubro, Sexta-feira

    Tempo Temperatura Precipitação Vento Pressão Humidade
    00:00 +17°C° 0 mm 4 m/s 678 mmHg 37%
    01:00 +17°C° 0 mm 3 m/s 678 mmHg 40%
    02:00 +16°C° 0 mm 3 m/s 678 mmHg 43%
    03:00 +14°C° 0 mm 3 m/s 678 mmHg 46%
    04:00 +14°C° 0 mm 2 m/s 677 mmHg 49%
    05:00 +15°C° 0 mm 2 m/s 678 mmHg 48%
    06:00 +14°C° 0 mm 3 m/s 679 mmHg 47%
    07:00 +16°C° 0 mm 3 m/s 679 mmHg 46%
    08:00 +18°C° 0 mm 2 m/s 680 mmHg 40%
    09:00 +20°C° 0 mm 2 m/s 680 mmHg 33%
    10:00 +22°C° 0 mm 1 m/s 680 mmHg 27%
    11:00 +24°C° 0 mm 2 m/s 680 mmHg 23%
    12:00 +25°C° 0 mm 2 m/s 680 mmHg 20%
    13:00 +27°C° 0 mm 3 m/s 680 mmHg 16%
    14:00 +27°C° 0 mm 3 m/s 680 mmHg 15%
    15:00 +28°C° 0 mm 4 m/s 680 mmHg 14%
    16:00 +28°C° 0 mm 5 m/s 679 mmHg 13%
    17:00 +27°C° 0 mm 5 m/s 680 mmHg 14%
    18:00 +26°C° 0 mm 6 m/s 680 mmHg 15%
    19:00 +24°C° 0 mm 6 m/s 680 mmHg 16%
    20:00 +23°C° 0 mm 6 m/s 680 mmHg 16%
    21:00 +22°C° 0 mm 6 m/s 681 mmHg 16%
    22:00 +21°C° 0 mm 6 m/s 681 mmHg 16%
    23:00 +20°C° 0 mm 5 m/s 681 mmHg 16%

    Amanhã, 21 Outubro, Sábado

    Tempo Temperatura Precipitação Vento Pressão Humidade
    00:00 +20°C° 0 mm 4 m/s 681 mmHg 16%
    01:00 +19°C° 0 mm 4 m/s 681 mmHg 16%
    02:00 +18°C° 0 mm 3 m/s 681 mmHg 17%
    03:00 +17°C° 0 mm 3 m/s 681 mmHg 19%
    04:00 +16°C° 0 mm 2 m/s 680 mmHg 20%
    05:00 +17°C° 0 mm 2 m/s 681 mmHg 19%
    06:00 +18°C° 0 mm 3 m/s 682 mmHg 18%
    07:00 +19°C° 0 mm 3 m/s 682 mmHg 16%
    08:00 +21°C° 0 mm 3 m/s 682 mmHg 14%
    09:00 +23°C° 0 mm 4 m/s 683 mmHg 12%
    10:00 +26°C° 0 mm 4 m/s 683 mmHg 10%
    11:00 +28°C° 0 mm 4 m/s 682 mmHg 9%
    12:00 +29°C° 0 mm 5 m/s 682 mmHg 9%
    13:00 +32°C° 0 mm 5 m/s 681 mmHg 8%
    14:00 +32°C° 0 mm 4 m/s 681 mmHg 8%
    15:00 +33°C° 0 mm 4 m/s 680 mmHg 8%
    16:00 +33°C° 0 mm 4 m/s 680 mmHg 7%
    17:00 +32°C° 0 mm 4 m/s 680 mmHg 8%
    18:00 +30°C° 0 mm 4 m/s 680 mmHg 8%
    19:00 +29°C° 0 mm 4 m/s 680 mmHg 9%
    20:00 +28°C° 0 mm 4 m/s 680 mmHg 9%
    21:00 +28°C° 0 mm 5 m/s 680 mmHg 9%
    22:00 +27°C° 0 mm 5 m/s 680 mmHg 10%
    23:00 +26°C° 0 mm 4 m/s 679 mmHg 10%

    Depois de amanhã, 22 Outubro, Domingo

    Tempo Temperatura Precipitação Vento Pressão Humidade
    00:00 +25°C° 0 mm 3 m/s 679 mmHg 10%
    01:00 +24°C° 0 mm 2 m/s 678 mmHg 11%
    02:00 +23°C° 0 mm 2 m/s 678 mmHg 11%
    03:00 +23°C° 0 mm 2 m/s 678 mmHg 11%
    04:00 +21°C° 0 mm 2 m/s 678 mmHg 12%
    05:00 +23°C° 0 mm 2 m/s 678 mmHg 10%
    06:00 +25°C° 0 mm 2 m/s 679 mmHg 9%
    07:00 +26°C° 0 mm 2 m/s 680 mmHg 7%
    08:00 +29°C° 0 mm 2 m/s 680 mmHg 7%
    09:00 +31°C° 0 mm 3 m/s 680 mmHg 6%
    10:00 +34°C° 0 mm 3 m/s 680 mmHg 5%
    11:00 +35°C° 0 mm 3 m/s 679 mmHg 5%
    12:00 +36°C° 0 mm 3 m/s 679 mmHg 5%
    13:00 +38°C° 0 mm 4 m/s 678 mmHg 5%
    14:00 +38°C° 0 mm 4 m/s 678 mmHg 5%
    15:00 +40°C° 0 mm 4 m/s 677 mmHg 4%
    16:00 +41°C° 0 mm 5 m/s 677 mmHg 4%
    17:00 +39°C° 0 mm 6 m/s 677 mmHg 6%
    18:00 +36°C° 0 mm 7 m/s 677 mmHg 7%
    19:00 +34°C° 0 mm 9 m/s 677 mmHg 9%
    20:00 +32°C° 0 mm 7 m/s 678 mmHg 13%
    21:00 +29°C° 0 mm 6 m/s 678 mmHg 17%
    22:00 +28°C° 0 mm 4 m/s 679 mmHg 20%
    23:00 +27°C° 0 mm 4 m/s 679 mmHg 22%

    23 Outubro, Segunda-feira

    Tempo Temperatura Precipitação Vento Pressão Humidade
    00:00 +26°C° 0 mm 4 m/s 678 mmHg 24%
    01:00 +25°C° 0 mm 3 m/s 678 mmHg 26%
    02:00 +24°C° 0 mm 3 m/s 678 mmHg 28%
    03:00 +22°C° 0 mm 3 m/s 678 mmHg 30%
    04:00 +21°C° 0 mm 3 m/s 677 mmHg 32%
    05:00 +21°C° 0 mm 3 m/s 678 mmHg 30%
    06:00 +22°C° 0 mm 3 m/s 679 mmHg 28%
    07:00 +23°C° 0 mm 4 m/s 679 mmHg 26%
    08:00 +26°C° 0 mm 4 m/s 679 mmHg 21%
    09:00 +28°C° 0 mm 4 m/s 680 mmHg 16%
    10:00 +30°C° 0 mm 4 m/s 680 mmHg 11%
    11:00 +32°C° 0 mm 4 m/s 679 mmHg 9%
    12:00 +33°C° 0 mm 4 m/s 679 mmHg 7%
    13:00 +34°C° 0 mm 4 m/s 679 mmHg 6%
    14:00 +34°C° 0 mm 4 m/s 679 mmHg 6%
    15:00 +35°C° 0 mm 5 m/s 678 mmHg 6%
    16:00 +35°C° 0 mm 5 m/s 678 mmHg 6%
    17:00 +33°C° 0 mm 5 m/s 678 mmHg 7%
    18:00 +32°C° 0 mm 6 m/s 678 mmHg 8%
    19:00 +29°C° 0 mm 6 m/s 679 mmHg 9%
    20:00 +28°C° 0 mm 6 m/s 679 mmHg 12%
    21:00 +26°C° 0 mm 5 m/s 679 mmHg 15%
    22:00 +25°C° 0 mm 5 m/s 679 mmHg 18%
    23:00 +23°C° 0 mm 4 m/s 679 mmHg 21%

    24 Outubro, Terça-feira

    Tempo Temperatura Precipitação Vento Pressão Humidade
    00:00 +22°C° 0 mm 3 m/s 678 mmHg 25%
    01:00 +21°C° 0 mm 2 m/s 678 mmHg 28%
    02:00 +20°C° 0 mm 2 m/s 678 mmHg 30%
    03:00 +20°C° 0 mm 2 m/s 678 mmHg 32%
    04:00 +19°C° 0 mm 2 m/s 677 mmHg 34%
    05:00 +20°C° 0 mm 2 m/s 678 mmHg 31%
    06:00 +22°C° 0 mm 1 m/s 678 mmHg 29%
    07:00 +23°C° 0 mm 1 m/s 679 mmHg 27%
    08:00 +25°C° 0 mm 1 m/s 679 mmHg 23%
    09:00 +27°C° 0 mm 2 m/s 679 mmHg 20%
    10:00 +29°C° 0 mm 2 m/s 680 mmHg 16%
    11:00 +31°C° 0 mm 1 m/s 679 mmHg 14%
    12:00 +33°C° 0 mm 1 m/s 679 mmHg 13%
    13:00 +34°C° 0 mm 1 m/s 678 mmHg 11%
    14:00 +35°C° 0 mm 1 m/s 678 mmHg 10%
    15:00 +36°C° 0 mm 2 m/s 678 mmHg 9%
    16:00 +37°C° 0 mm 2 m/s 677 mmHg 8%
    17:00 +36°C° 0 mm 3 m/s 678 mmHg 9%
    18:00 +35°C° 0 mm 3 m/s 678 mmHg 9%
    19:00 +34°C° 0 mm 4 m/s 678 mmHg 10%
    20:00 +32°C° 0 mm 4 m/s 678 mmHg 10%
    21:00 +30°C° 0 mm 4 m/s 678 mmHg 10%
    22:00 +29°C° 0 mm 4 m/s 678 mmHg 10%
    23:00 +28°C° 0 mm 4 m/s 678 mmHg 12%

    25 Outubro, Quarta-feira

    Tempo Temperatura Precipitação Vento Pressão Humidade
    00:00 +27°C° 0 mm 3 m/s 678 mmHg 13%
    01:00 +26°C° 0 mm 3 m/s 677 mmHg 15%
    02:00 +25°C° 0 mm 3 m/s 677 mmHg 18%
    03:00 +24°C° 0 mm 2 m/s 677 mmHg 21%
    04:00 +23°C° 0 mm 2 m/s 677 mmHg 25%
    05:00 +24°C° 0 mm 2 m/s 677 mmHg 24%
    06:00 +24°C° 0 mm 2 m/s 678 mmHg 23%
    07:00 +25°C° 0 mm 2 m/s 679 mmHg 22%
    08:00 +27°C° 0 mm 2 m/s 679 mmHg 19%
    09:00 +29°C° 0 mm 2 m/s 679 mmHg 15%
    10:00 +31°C° 0 mm 2 m/s 679 mmHg 11%
    11:00 +34°C° 0 mm 2 m/s 678 mmHg 10%
    12:00 +35°C° 0 mm 3 m/s 678 mmHg 9%
    13:00 +37°C° 0 mm 3 m/s 677 mmHg 7%
    14:00 +37°C° 0 mm 4 m/s 677 mmHg 7%
    15:00 +37°C° 0 mm 5 m/s 677 mmHg 7%
    16:00 +37°C° 0 mm 5 m/s 677 mmHg 7%
    17:00 +35°C° 0 mm 7 m/s 677 mmHg 8%
    18:00 +33°C° 0 mm 8 m/s 677 mmHg 8%
    19:00 +29°C° 0 mm 10 m/s 677 mmHg 9%
    20:00 +28°C° 0 mm 9 m/s 677 mmHg 13%
    21:00 +26°C° 0 mm 8 m/s 677 mmHg 16%
    22:00 +24°C° 0 mm 7 m/s 678 mmHg 20%
    23:00 +22°C° 0 mm 6 m/s 677 mmHg 24%
    Mostrar mais